Terminal Aerodrome Forecast
Issued by NWS

Home | Current Version | Previous Version | Text Only | Print | Product List | Glossary On
Versions: 1 2 3 4 5 6 7 8 9 10 11 12 13
000
FTUS46 KSEW 071157 AAA
TAFOLM
TAF AMD
KOLM 071157Z 0712/0812 19005KT P6SM SCT017
      TEMPO 0712/0714 BKN017
     FM071400 19005KT P6SM OVC017
     FM071900 25005KT P6SM SCT250
     FM080300 VRB03KT P6SM SKC=

USA.gov is the U.S. government's official web portal to all federal, state and local government web resources and services.